When you browse on this site, cookies collect data to enhance your experience and personalize the content and advertising you see.
Visit our Privacy Policy to learn more. By continuing to use the site, you agree to this use of cookies and data.
  • In Hungary
  • List of Countries
  • For 7 days
  • Water Temperature
  • Weather Map
  • News
  • Weather Widgets
  • user-avatar
    Login

    Hourly Weather Alekseevskoe

    Today, 23 January, Thursday

    Time Temperature Precipitation Wind Pressure Humidity
    00:00 -6°C° 0 mm 6 mps 736 mmHg 76%
    01:00 -6°C° 0 mm 6 mps 737 mmHg 72%
    02:00 -6°C° 0 mm 5 mps 738 mmHg 68%
    03:00 -6°C° 0.1 mm 5 mps 738 mmHg 67%
    04:00 -8°C° 0.1 mm 6 mps 738 mmHg 67%
    05:00 -8°C° 0.1 mm 6 mps 739 mmHg 67%
    06:00 -8°C° 0.1 mm 6 mps 739 mmHg 68%
    07:00 -8°C° 0.1 mm 6 mps 740 mmHg 69%
    08:00 -9°C° 0 mm 6 mps 740 mmHg 70%
    09:00 -8°C° 0 mm 6 mps 741 mmHg 64%
    10:00 -8°C° 0 mm 6 mps 741 mmHg 57%
    11:00 -8°C° 0 mm 6 mps 741 mmHg 51%
    12:00 -6°C° 0 mm 6 mps 742 mmHg 56%
    13:00 -6°C° 0 mm 6 mps 742 mmHg 60%
    14:00 -6°C° 0 mm 6 mps 742 mmHg 64%
    15:00 -6°C° 0 mm 5 mps 743 mmHg 65%
    16:00 -6°C° 0 mm 5 mps 743 mmHg 66%
    17:00 -6°C° 0 mm 5 mps 743 mmHg 67%
    18:00 -7°C° 0 mm 4 mps 743 mmHg 68%
    19:00 -6°C° 0 mm 3 mps 743 mmHg 69%
    20:00 -5°C° 0 mm 2 mps 743 mmHg 70%
    21:00 -5°C° 0 mm 2 mps 743 mmHg 71%
    22:00 -4°C° 0 mm 2 mps 742 mmHg 72%
    23:00 -5°C° 0 mm 3 mps 742 mmHg 72%

    Tomorrow, 24 January, Friday

    Time Temperature Precipitation Wind Pressure Humidity
    00:00 -5°C° 0 mm 3 mps 742 mmHg 76%
    01:00 -5°C° 0 mm 3 mps 741 mmHg 79%
    02:00 -5°C° 0 mm 3 mps 741 mmHg 82%
    03:00 -4°C° 0 mm 4 mps 740 mmHg 83%
    04:00 -4°C° 0 mm 4 mps 739 mmHg 83%
    05:00 -3°C° 0 mm 4 mps 737 mmHg 83%
    06:00 -3°C° 0.3 mm 4 mps 737 mmHg 87%
    07:00 -3°C° 0.3 mm 4 mps 736 mmHg 90%
    08:00 -4°C° 0.3 mm 5 mps 735 mmHg 94%
    09:00 -2°C° 0 mm 4 mps 735 mmHg 91%
    10:00 -2°C° 0 mm 4 mps 734 mmHg 89%
    11:00 -1°C° 0 mm 4 mps 734 mmHg 87%
    12:00 -1°C° 0.3 mm 4 mps 733 mmHg 90%
    13:00 0°C° 0.3 mm 4 mps 733 mmHg 93%
    14:00 0°C° 0.3 mm 4 mps 732 mmHg 97%
    15:00 0°C° 0.3 mm 4 mps 732 mmHg 96%
    16:00 0°C° 0.3 mm 5 mps 731 mmHg 95%
    17:00 0°C° 0.3 mm 5 mps 731 mmHg 95%
    18:00 0°C° 0.1 mm 5 mps 731 mmHg 92%
    19:00 -1°C° 0.1 mm 4 mps 732 mmHg 90%
    20:00 -1°C° 0.1 mm 4 mps 732 mmHg 88%
    21:00 -1°C° 0 mm 4 mps 732 mmHg 86%
    22:00 -2°C° 0 mm 4 mps 732 mmHg 84%
    23:00 -2°C° 0 mm 4 mps 733 mmHg 83%

    Day after tomorrow, 25 January, Saturday

    Time Temperature Precipitation Wind Pressure Humidity
    00:00 -2°C° 0 mm 4 mps 733 mmHg 83%
    01:00 -3°C° 0 mm 4 mps 732 mmHg 84%
    02:00 -3°C° 0 mm 4 mps 732 mmHg 84%
    03:00 -3°C° 0 mm 4 mps 732 mmHg 84%
    04:00 -3°C° 0 mm 4 mps 732 mmHg 84%
    05:00 -4°C° 0 mm 5 mps 731 mmHg 84%
    06:00 -2°C° 0.1 mm 5 mps 731 mmHg 86%
    07:00 -3°C° 0.1 mm 6 mps 731 mmHg 88%
    08:00 -3°C° 0.1 mm 6 mps 730 mmHg 90%
    09:00 -3°C° 0.1 mm 6 mps 730 mmHg 82%
    10:00 -3°C° 0.1 mm 6 mps 730 mmHg 73%
    11:00 -3°C° 0.1 mm 6 mps 730 mmHg 65%
    12:00 -3°C° 0.1 mm 6 mps 730 mmHg 66%
    13:00 -3°C° 0.1 mm 6 mps 730 mmHg 66%
    14:00 -3°C° 0.1 mm 6 mps 731 mmHg 67%
    15:00 -4°C° 0.1 mm 6 mps 731 mmHg 72%
    16:00 -4°C° 0.1 mm 6 mps 731 mmHg 77%
    17:00 -5°C° 0.1 mm 6 mps 732 mmHg 82%
    18:00 -5°C° 0 mm 6 mps 732 mmHg 81%
    19:00 -5°C° 0 mm 6 mps 733 mmHg 79%
    20:00 -5°C° 0 mm 6 mps 734 mmHg 78%
    21:00 -5°C° 0 mm 6 mps 734 mmHg 80%
    22:00 -5°C° 0 mm 6 mps 735 mmHg 82%
    23:00 -5°C° 0 mm 6 mps 736 mmHg 84%

    26 January, Sunday

    Time Temperature Precipitation Wind Pressure Humidity
    00:00 -6°C° 0 mm 6 mps 736 mmHg 82%
    01:00 -6°C° 0 mm 5 mps 737 mmHg 81%
    02:00 -6°C° 0 mm 5 mps 738 mmHg 80%
    03:00 -6°C° 0 mm 5 mps 739 mmHg 79%
    04:00 -6°C° 0 mm 5 mps 740 mmHg 78%
    05:00 -6°C° 0 mm 5 mps 740 mmHg 77%
    06:00 -6°C° 0 mm 5 mps 741 mmHg 78%
    07:00 -7°C° 0 mm 4 mps 742 mmHg 78%
    08:00 -7°C° 0 mm 4 mps 743 mmHg 79%
    09:00 -5°C° 0 mm 4 mps 743 mmHg 76%
    10:00 -5°C° 0 mm 4 mps 744 mmHg 73%
    11:00 -4°C° 0 mm 4 mps 745 mmHg 71%
    12:00 -4°C° 0 mm 4 mps 745 mmHg 71%
    13:00 -4°C° 0 mm 3 mps 745 mmHg 71%
    14:00 -4°C° 0 mm 3 mps 746 mmHg 71%
    15:00 -4°C° 0 mm 3 mps 746 mmHg 75%
    16:00 -4°C° 0 mm 3 mps 746 mmHg 79%
    17:00 -4°C° 0 mm 2 mps 746 mmHg 82%
    18:00 -3°C° 0 mm 2 mps 746 mmHg 83%
    19:00 -3°C° 0 mm 2 mps 746 mmHg 83%
    20:00 -3°C° 0 mm 2 mps 746 mmHg 83%
    21:00 -3°C° 0.1 mm 2 mps 746 mmHg 87%
    22:00 -3°C° 0.1 mm 2 mps 745 mmHg 91%
    23:00 -1°C° 0.1 mm 1 mps 745 mmHg 94%

    27 January, Monday

    Time Temperature Precipitation Wind Pressure Humidity
    00:00 -1°C° 0.4 mm 1 mps 745 mmHg 95%
    01:00 -1°C° 0.4 mm 1 mps 745 mmHg 96%
    02:00 -2°C° 0.4 mm 2 mps 744 mmHg 97%
    03:00 -2°C° 0.5 mm 2 mps 744 mmHg 97%
    04:00 -1°C° 0.5 mm 2 mps 744 mmHg 97%
    05:00 -1°C° 0.5 mm 2 mps 744 mmHg 98%
    06:00 +1°C° 0.4 mm 2 mps 744 mmHg 97%
    07:00 +1°C° 0.4 mm 3 mps 743 mmHg 97%
    08:00 +1°C° 0.4 mm 3 mps 743 mmHg 97%
    09:00 +1°C° 0.1 mm 3 mps 743 mmHg 97%
    10:00 +1°C° 0.1 mm 3 mps 743 mmHg 97%
    11:00 +1°C° 0.1 mm 3 mps 743 mmHg 97%
    12:00 +1°C° 0 mm 3 mps 743 mmHg 97%
    13:00 +1°C° 0 mm 3 mps 743 mmHg 97%
    14:00 +1°C° 0 mm 3 mps 743 mmHg 97%
    15:00 +1°C° 0.1 mm 3 mps 743 mmHg 97%
    16:00 +1°C° 0.1 mm 3 mps 742 mmHg 96%
    17:00 +1°C° 0.1 mm 3 mps 742 mmHg 96%
    18:00 0°C° 0.1 mm 3 mps 742 mmHg 96%
    19:00 0°C° 0.1 mm 3 mps 742 mmHg 96%
    20:00 0°C° 0.1 mm 3 mps 742 mmHg 96%
    21:00 0°C° 0.1 mm 3 mps 742 mmHg 96%
    22:00 0°C° 0.1 mm 3 mps 742 mmHg 95%
    23:00 -1°C° 0.1 mm 3 mps 741 mmHg 95%

    28 January, Tuesday

    Time Temperature Precipitation Wind Pressure Humidity
    00:00 -1°C° 0.1 mm 3 mps 741 mmHg 95%
    01:00 -1°C° 0.1 mm 2 mps 741 mmHg 96%
    02:00 -2°C° 0.1 mm 2 mps 741 mmHg 96%
    03:00 -2°C° 0.1 mm 2 mps 740 mmHg 96%
    04:00 -2°C° 0.1 mm 2 mps 740 mmHg 96%
    05:00 -2°C° 0.1 mm 2 mps 739 mmHg 97%
    06:00 -2°C° 0.1 mm 2 mps 739 mmHg 97%
    07:00 -2°C° 0.1 mm 2 mps 739 mmHg 97%
    08:00 -2°C° 0.1 mm 2 mps 738 mmHg 97%
    09:00 -1°C° 0.1 mm 2 mps 738 mmHg 96%
    10:00 -1°C° 0.1 mm 2 mps 738 mmHg 96%
    11:00 -1°C° 0.1 mm 3 mps 738 mmHg 95%
    12:00 -1°C° 0.1 mm 3 mps 737 mmHg 96%
    13:00 -1°C° 0.1 mm 3 mps 737 mmHg 96%
    14:00 0°C° 0.1 mm 3 mps 736 mmHg 96%
    15:00 -1°C° 0 mm 2 mps 736 mmHg 95%
    16:00 -1°C° 0 mm 2 mps 736 mmHg 94%
    17:00 -1°C° 0 mm 2 mps 735 mmHg 92%
    18:00 -1°C° 0 mm 2 mps 735 mmHg 94%
    19:00 -1°C° 0 mm 3 mps 734 mmHg 95%
    20:00 -1°C° 0 mm 3 mps 734 mmHg 96%
    21:00 0°C° 0 mm 3 mps 733 mmHg 96%
    22:00 0°C° 0 mm 3 mps 733 mmHg 96%
    23:00 0°C° 0 mm 4 mps 732 mmHg 96%
    Show more